START_TIME,STEP,MOV.,H8,t_acc.,H43,t_acc.,M25,t_acc.,H9,t_acc.
1979-07-21 06:00:29.220 ,0,1,0.,12.0,0.,12.0,0.,12.0,0.,12.0
1979-07-21 06:00:41.220 ,0,1,0.,12.0,0.,12.0,0.,12.0,0.,12.0
1979-07-21 06:00:53.220 ,4,1,0.,12.0,0.,12.0,0.,12.0,0.,12.0
1979-07-21 06:01:05.220 ,4,1,0.,12.0,0.,12.0,0.,12.0,0.,12.0
1979-07-21 06:01:17.220 ,7,1,0.,12.0,0.,12.0,0.,12.0,0.,12.0
1979-07-21 06:01:29.220 ,7,1,0.,12.0,0.,12.0,0.,12.0,0.,12.0
1979-07-21 06:01:41.220 ,3,1,0.,12.0,0.,12.0,0.,12.0,0.,12.0
1979-07-21 06:01:53.220 ,3,1,0.,12.0,0.,12.0,0.,12.0,0.,12.0
1979-07-21 06:02:05.220 ,0,1,,0,,0,,0,,0
1979-07-21 06:02:17.220 ,0,1,0.,12.0,0.,12.0,0.,12.0,0.,12.0
1979-07-21 06:02:29.220 ,4,1,0.,12.0,0.,12.0,0.,12.0,0.,12.0
1979-07-21 06:02:41.220 ,4,1,1.,12.0,0.,12.0,0.,12.0,0.,12.0
1979-07-21 06:02:53.220 ,7,1,0.,12.0,0.,12.0,0.,12.0,0.,12.0
1979-07-21 06:03:05.220 ,7,1,0.,12.0,0.,12.0,0.,12.0,0.,12.0
1979-07-21 06:03:17.220 ,3,1,0.,12.0,0.,12.0,0.,12.0,0.,12.0
1979-07-21 06:03:29.220 ,3,1,0.,12.0,0.,12.0,0.,12.0,0.,12.0
1979-07-21 06:03:41.220 ,0,1,0.,12.0,0.,12.0,0.,12.0,0.,12.0
1979-07-21 06:03:53.220 ,0,1,0.,12.0,0.,12.0,0.,12.0,0.,12.0
1979-07-21 06:04:05.220 ,4,1,0.,12.0,0.,12.0,0.,12.0,0.,12.0
1979-07-21 06:04:17.220 ,4,1,0.,12.0,0.,12.0,0.,12.0,0.,12.0
1979-07-21 06:04:29.220 ,7,1,0.,12.0,0.,12.0,0.,12.0,0.,12.0
1979-07-21 06:04:41.220 ,7,1,0.,12.0,0.,12.0,0.,12.0,0.,12.0
1979-07-21 06:04:53.220 ,3,1,0.,12.0,0.,12.0,0.,12.0,0.,12.0
1979-07-21 06:05:05.220 ,3,1,0.,12.0,0.,12.0,0.,12.0,0.,12.0
1979-07-21 06:05:17.220 ,0,1,0.,12.0,0.,12.0,0.,12.0,0.,12.0
1979-07-21 06:05:29.220 ,0,1,0.,12.0,0.,12.0,0.,12.0,0.,12.0
1979-07-21 06:05:41.220 ,0,0,0.,12.0,0.,12.0,0.,12.0,0.,12.0
1979-07-21 06:05:53.220 ,0,0,0.,12.0,0.,12.0,0.,12.0,0.,12.0
1979-07-21 06:06:05.220 ,0,0,0.,12.0,0.,12.0,0.,12.0,0.,12.0
1979-07-21 06:06:17.220 ,0,0,0.,12.0,0.,12.0,0.,12.0,0.,12.0
1979-07-21 06:06:29.220 ,5,0,0.,12.0,0.,12.0,0.,12.0,0.,12.0
1979-07-21 06:06:41.220 ,5,0,0.,12.0,0.,12.0,0.,12.0,0.,12.0
1979-07-21 06:06:53.220 ,5,0,0.,12.0,0.,12.0,0.,12.0,0.,12.0
1979-07-21 06:07:05.220 ,5,0,0.,12.0,0.,12.0,0.,12.0,0.,12.0
1979-07-21 06:07:17.220 ,4,0,0.,12.0,0.,12.0,0.,12.0,0.,12.0
1979-07-21 06:07:29.220 ,4,0,0.,12.0,0.,12.0,0.,12.0,0.,12.0
1979-07-21 06:07:41.220 ,4,0,0.,12.0,0.,12.0,0.,12.0,0.,12.0
1979-07-21 06:07:53.220 ,4,0,0.,12.0,0.,12.0,0.,12.0,0.,12.0
1979-07-21 06:08:05.220 ,3,0,0.,12.0,0.,12.0,0.,12.0,0.,12.0
1979-07-21 06:08:17.220 ,3,0,0.,12.0,0.,12.0,0.,12.0,0.,12.0
1979-07-21 06:08:29.220 ,3,0,0.,12.0,0.,12.0,0.,12.0,0.,12.0
1979-07-21 06:08:41.220 ,3,0,0.,12.0,0.,12.0,0.,12.0,0.,12.0
1979-07-21 06:08:53.220 ,2,0,0.,12.0,0.,12.0,0.,12.0,0.,12.0
1979-07-21 06:09:05.220 ,2,0,0.,12.0,0.,12.0,0.,12.0,0.,12.0
1979-07-21 06:09:17.220 ,2,0,0.,12.0,0.,12.0,0.,12.0,0.,12.0
1979-07-21 06:09:29.220 ,2,0,0.,12.0,0.,12.0,0.,12.0,0.,12.0
1979-07-21 06:09:41.220 ,1,0,0.,12.0,0.,12.0,0.,12.0,0.,12.0
1979-07-21 06:09:53.220 ,1,0,0.,12.0,0.,12.0,0.,12.0,0.,12.0
1979-07-21 06:10:05.220 ,1,0,0.,12.0,0.,12.0,0.,12.0,0.,12.0
1979-07-21 06:10:17.220 ,1,0,0.,12.0,0.,12.0,0.,12.0,0.,12.0
1979-07-21 06:10:29.220 ,0,0,0.,12.0,0.,12.0,0.,12.0,0.,12.0
1979-07-21 06:10:41.220 ,0,0,0.,12.0,0.,12.0,0.,12.0,0.,12.0
1979-07-21 06:10:53.220 ,0,0,0.,12.0,0.,12.0,0.,12.0,0.,12.0
1979-07-21 06:11:05.220 ,0,0,0.,12.0,0.,12.0,0.,12.0,0.,12.0
1979-07-21 06:11:17.220 ,0,0,0.,12.0,0.,12.0,0.,12.0,0.,12.0
1979-07-21 06:11:29.220 ,0,0,0.,12.0,0.,12.0,0.,12.0,0.,12.0
1979-07-21 06:11:41.220 ,0,0,0.,12.0,0.,12.0,0.,12.0,0.,12.0
1979-07-21 06:11:53.220 ,0,0,0.,12.0,0.,12.0,0.,12.0,0.,12.0
1979-07-21 06:12:05.220 ,1,0,0.,12.0,0.,12.0,0.,12.0,0.,12.0
1979-07-21 06:12:17.220 ,1,0,0.,12.0,0.,12.0,0.,12.0,0.,12.0
1979-07-21 06:12:29.220 ,1,0,0.,12.0,0.,12.0,0.,12.0,0.,12.0
1979-07-21 06:12:41.220 ,1,0,0.,12.0,0.,12.0,0.,12.0,0.,12.0
1979-07-21 06:12:53.220 ,2,0,0.,12.0,0.,12.0,0.,12.0,0.,12.0
1979-07-21 06:13:05.220 ,2,0,0.,12.0,0.,12.0,0.,12.0,0.,12.0
1979-07-21 06:13:17.220 ,2,0,0.,12.0,0.,12.0,0.,12.0,0.,12.0
1979-07-21 06:13:29.220 ,2,0,0.,12.0,0.,12.0,0.,12.0,0.,12.0
1979-07-21 06:13:41.220 ,3,0,0.,12.0,0.,12.0,0.,12.0,0.,12.0
1979-07-21 06:13:53.220 ,3,0,0.,12.0,0.,12.0,0.,12.0,0.,12.0
1979-07-21 06:14:05.220 ,3,0,0.,12.0,0.,12.0,0.,12.0,0.,12.0
1979-07-21 06:14:17.220 ,3,0,0.,12.0,0.,12.0,0.,12.0,0.,12.0
1979-07-21 06:14:29.220 ,4,0,0.,12.0,0.,12.0,0.,12.0,0.,12.0
1979-07-21 06:14:41.220 ,4,0,0.,12.0,0.,12.0,0.,12.0,0.,12.0
1979-07-21 06:14:53.220 ,4,0,0.,12.0,0.,12.0,0.,12.0,0.,12.0
1979-07-21 06:15:05.220 ,4,0,0.,12.0,0.,12.0,0.,12.0,0.,12.0
1979-07-21 06:15:17.220 ,5,0,0.,12.0,0.,12.0,0.,12.0,0.,12.0
1979-07-21 06:15:29.220 ,5,0,0.,12.0,0.,12.0,0.,12.0,0.,12.0
1979-07-21 06:15:41.220 ,5,0,0.,12.0,0.,12.0,0.,12.0,0.,12.0
1979-07-21 06:15:53.220 ,5,0,0.,12.0,0.,12.0,0.,12.0,0.,12.0
1979-07-21 06:16:05.220 ,6,0,0.,12.0,0.,12.0,0.,12.0,0.,12.0
1979-07-21 06:16:17.220 ,6,0,1.,12.0,0.,12.0,0.,12.0,0.,12.0
1979-07-21 06:16:29.220 ,6,0,0.,12.0,0.,12.0,0.,12.0,0.,12.0
1979-07-21 06:16:41.220 ,6,0,0.,12.0,0.,12.0,0.,12.0,0.,12.0
1979-07-21 06:16:53.220 ,7,0,0.,12.0,0.,12.0,0.,12.0,0.,12.0
1979-07-21 06:17:05.220 ,7,0,0.,12.0,0.,12.0,0.,12.0,0.,12.0
1979-07-21 06:17:17.220 ,7,0,0.,12.0,0.,12.0,0.,12.0,0.,12.0
1979-07-21 06:17:29.220 ,7,0,0.,12.0,0.,12.0,0.,12.0,0.,12.0
1979-07-21 06:17:41.220 ,7,0,0.,12.0,0.,12.0,0.,12.0,0.,12.0
1979-07-21 06:17:53.220 ,7,0,0.,12.0,0.,12.0,0.,12.0,0.,12.0
1979-07-21 06:18:05.220 ,7,0,0.,12.0,0.,12.0,0.,12.0,0.,12.0
1979-07-21 06:18:17.220 ,7,0,0.,12.0,0.,12.0,0.,12.0,0.,12.0
1979-07-21 06:18:29.220 ,6,0,0.,12.0,0.,12.0,0.,12.0,0.,12.0
1979-07-21 06:18:41.220 ,6,0,0.,12.0,0.,12.0,0.,12.0,0.,12.0
1979-07-21 06:18:53.220 ,6,0,0.,12.0,0.,12.0,0.,12.0,0.,12.0
1979-07-21 06:19:05.220 ,6,0,0.,12.0,0.,12.0,0.,12.0,0.,12.0
1979-07-21 06:19:17.220 ,5,0,0.,12.0,0.,12.0,0.,12.0,0.,12.0
1979-07-21 06:19:29.220 ,5,0,0.,12.0,0.,12.0,0.,12.0,0.,12.0
1979-07-21 06:19:41.220 ,5,0,0.,12.0,0.,12.0,0.,12.0,0.,12.0
1979-07-21 06:19:53.220 ,5,0,0.,12.0,0.,12.0,0.,12.0,0.,12.0
1979-07-21 06:20:05.220 ,4,0,0.,12.0,0.,12.0,0.,12.0,0.,12.0
1979-07-21 06:20:17.220 ,4,0,0.,12.0,0.,12.0,0.,12.0,0.,12.0
1979-07-21 06:20:29.220 ,4,0,0.,12.0,0.,12.0,0.,12.0,0.,12.0
1979-07-21 06:20:41.220 ,4,0,0.,12.0,0.,12.0,0.,12.0,0.,12.0
1979-07-21 06:20:53.220 ,3,0,0.,12.0,0.,12.0,0.,12.0,0.,12.0
1979-07-21 06:21:05.220 ,3,0,0.,12.0,0.,12.0,0.,12.0,0.,12.0
1979-07-21 06:21:17.220 ,3,0,0.,12.0,0.,12.0,0.,12.0,0.,12.0
1979-07-21 06:21:29.220 ,3,0,0.,12.0,0.,12.0,0.,12.0,0.,12.0
1979-07-21 06:21:41.220 ,2,0,0.,12.0,0.,12.0,0.,12.0,0.,12.0
1979-07-21 06:21:53.220 ,2,0,0.,12.0,0.,12.0,0.,12.0,0.,12.0
1979-07-21 06:22:05.220 ,2,0,0.,12.0,0.,12.0,0.,12.0,0.,12.0
1979-07-21 06:22:17.220 ,2,0,0.,12.0,0.,12.0,0.,12.0,0.,12.0
1979-07-21 06:22:29.220 ,1,0,0.,12.0,0.,12.0,0.,12.0,0.,12.0
1979-07-21 06:22:41.220 ,1,0,0.,12.0,0.,12.0,0.,12.0,0.,12.0
1979-07-21 06:22:53.220 ,1,0,0.,12.0,0.,12.0,0.,12.0,0.,12.0
1979-07-21 06:23:05.220 ,1,0,0.,12.0,0.,12.0,0.,12.0,0.,12.0
1979-07-21 06:23:17.220 ,0,0,0.,12.0,0.,12.0,0.,12.0,0.,12.0
1979-07-21 06:23:29.220 ,0,0,0.,12.0,0.,12.0,0.,12.0,0.,12.0
1979-07-21 06:23:41.220 ,0,0,1.,12.0,0.,12.0,0.,12.0,0.,12.0
1979-07-21 06:23:53.220 ,0,0,0.,12.0,0.,12.0,0.,12.0,0.,12.0
1979-07-21 06:24:05.220 ,0,0,0.,12.0,0.,12.0,0.,12.0,0.,12.0
1979-07-21 06:24:17.220 ,0,0,1.,12.0,0.,12.0,0.,12.0,0.,12.0
1979-07-21 06:24:29.220 ,0,0,0.,12.0,0.,12.0,0.,12.0,0.,12.0
1979-07-21 06:24:41.220 ,0,0,1.,12.0,0.,12.0,0.,12.0,0.,12.0
1979-07-21 06:24:53.220 ,1,0,0.,12.0,0.,12.0,0.,12.0,0.,12.0
1979-07-21 06:25:05.220 ,1,0,0.,12.0,0.,12.0,0.,12.0,0.,12.0
1979-07-21 06:25:17.220 ,1,0,0.,12.0,0.,12.0,0.,12.0,0.,12.0
1979-07-21 06:25:29.220 ,1,0,0.,12.0,0.,12.0,0.,12.0,0.,12.0
1979-07-21 06:25:41.220 ,2,0,0.,12.0,0.,12.0,0.,12.0,0.,12.0
1979-07-21 06:25:53.220 ,2,0,0.,12.0,0.,12.0,0.,12.0,0.,12.0
1979-07-21 06:26:05.220 ,2,0,0.,12.0,0.,12.0,0.,12.0,0.,12.0
1979-07-21 06:26:17.220 ,2,0,0.,12.0,0.,12.0,0.,12.0,0.,12.0
1979-07-21 06:26:29.220 ,3,0,0.,12.0,0.,12.0,0.,12.0,0.,12.0
1979-07-21 06:26:41.220 ,3,0,0.,12.0,0.,12.0,0.,12.0,0.,12.0
1979-07-21 06:26:53.220 ,3,0,0.,12.0,0.,12.0,0.,12.0,0.,12.0
1979-07-21 06:27:05.220 ,3,0,0.,12.0,0.,12.0,0.,12.0,0.,12.0
1979-07-21 06:27:17.220 ,4,0,0.,12.0,0.,12.0,0.,12.0,0.,12.0
1979-07-21 06:27:29.220 ,4,0,0.,12.0,0.,12.0,0.,12.0,0.,12.0
1979-07-21 06:27:41.220 ,4,0,0.,12.0,0.,12.0,0.,12.0,0.,12.0
1979-07-21 06:27:53.220 ,4,0,0.,12.0,0.,12.0,0.,12.0,0.,12.0
1979-07-21 06:28:05.220 ,5,0,0.,12.0,0.,12.0,0.,12.0,0.,12.0
1979-07-21 06:28:17.220 ,5,0,0.,12.0,0.,12.0,0.,12.0,0.,12.0
1979-07-21 06:28:29.220 ,5,0,0.,12.0,0.,12.0,0.,12.0,0.,12.0
1979-07-21 06:28:41.220 ,5,0,0.,12.0,0.,12.0,0.,12.0,0.,12.0
1979-07-21 06:28:53.220 ,6,0,0.,12.0,0.,12.0,0.,12.0,0.,12.0
1979-07-21 06:29:05.220 ,6,0,0.,12.0,0.,12.0,0.,12.0,0.,12.0
1979-07-21 06:29:17.220 ,6,0,0.,12.0,0.,12.0,0.,12.0,0.,12.0
1979-07-21 06:29:29.220 ,6,0,0.,12.0,0.,12.0,0.,12.0,0.,12.0
1979-07-21 06:29:41.220 ,7,0,0.,12.0,0.,12.0,0.,12.0,0.,12.0
1979-07-21 06:29:53.220 ,7,0,0.,12.0,0.,12.0,0.,12.0,0.,12.0
1979-07-21 06:30:05.220 ,7,0,0.,12.0,0.,12.0,0.,12.0,0.,12.0
1979-07-21 06:30:17.220 ,7,0,0.,12.0,0.,12.0,0.,12.0,0.,12.0
1979-07-21 06:30:29.220 ,7,0,0.,12.0,0.,12.0,0.,12.0,0.,12.0
1979-07-21 06:30:41.220 ,7,0,0.,12.0,0.,12.0,0.,12.0,0.,12.0
1979-07-21 06:30:53.220 ,7,0,0.,12.0,0.,12.0,0.,12.0,0.,12.0
1979-07-21 06:31:05.220 ,7,0,0.,12.0,0.,12.0,0.,12.0,0.,12.0
1979-07-21 06:31:17.220 ,6,0,0.,12.0,0.,12.0,0.,12.0,0.,12.0
1979-07-21 06:31:29.220 ,6,0,0.,12.0,0.,12.0,0.,12.0,0.,12.0
1979-07-21 06:31:41.220 ,6,0,0.,12.0,0.,12.0,0.,12.0,0.,12.0
1979-07-21 06:31:53.220 ,6,0,0.,12.0,0.,12.0,0.,12.0,0.,12.0
1979-07-21 06:32:05.220 ,5,0,0.,12.0,0.,12.0,0.,12.0,0.,12.0
1979-07-21 06:32:17.220 ,5,0,0.,12.0,0.,12.0,0.,12.0,0.,12.0
1979-07-21 06:32:29.220 ,5,0,0.,12.0,0.,12.0,0.,12.0,0.,12.0
1979-07-21 06:32:41.220 ,5,0,0.,12.0,0.,12.0,0.,12.0,0.,12.0
1979-07-21 06:32:53.220 ,0,0,0.,12.0,0.,12.0,0.,12.0,0.,12.0
1979-07-21 06:33:05.220 ,0,0,,0,,0,,0,,0
1979-07-21 06:33:17.220 ,0,0,,0,,0,,0,,0
1979-07-21 06:33:29.220 ,0,0,,0,,0,,0,,0
1979-07-21 06:33:18.420 ,0,0,,0,,0,,0,,0
1979-07-21 06:33:30.420 ,0,0,0.,12.0,0.,12.0,0.,12.0,0.,12.0
1979-07-21 06:33:41.220 ,3,0,0.,12.0,0.,12.0,0.,12.0,0.,12.0
1979-07-21 06:33:53.220 ,3,0,0.,12.0,0.,12.0,0.,12.0,0.,12.0
1979-07-21 06:34:05.220 ,3,0,0.,12.0,0.,12.0,0.,12.0,0.,12.0
1979-07-21 06:34:17.220 ,3,0,0.,12.0,0.,12.0,0.,12.0,0.,12.0
1979-07-21 06:34:29.220 ,2,0,0.,12.0,0.,12.0,0.,12.0,0.,12.0
1979-07-21 06:34:41.220 ,2,0,0.,12.0,0.,12.0,0.,12.0,0.,12.0
1979-07-21 06:34:53.220 ,2,0,0.,12.0,0.,12.0,0.,12.0,0.,12.0
1979-07-21 06:35:05.220 ,2,0,0.,12.0,0.,12.0,0.,12.0,0.,12.0
1979-07-21 06:35:17.220 ,1,0,0.,12.0,0.,12.0,0.,12.0,0.,12.0
1979-07-21 06:35:29.220 ,1,0,0.,12.0,0.,12.0,0.,12.0,0.,12.0
1979-07-21 06:35:41.220 ,1,0,0.,12.0,0.,12.0,0.,12.0,0.,12.0
1979-07-21 06:35:53.220 ,1,0,0.,12.0,0.,12.0,0.,12.0,0.,12.0
1979-07-21 06:36:05.220 ,0,0,0.,12.0,0.,12.0,0.,12.0,0.,12.0
1979-07-21 06:36:17.220 ,0,0,0.,12.0,0.,12.0,0.,12.0,0.,12.0
1979-07-21 06:36:29.220 ,0,0,0.,12.0,0.,12.0,0.,12.0,0.,12.0
1979-07-21 06:36:41.220 ,0,0,1.,12.0,0.,12.0,0.,12.0,0.,12.0
1979-07-21 06:36:53.220 ,0,0,0.,12.0,0.,12.0,0.,12.0,0.,12.0
1979-07-21 06:37:05.220 ,0,0,0.,12.0,0.,12.0,0.,12.0,0.,12.0
1979-07-21 06:37:17.220 ,0,0,0.,12.0,0.,12.0,0.,12.0,0.,12.0
1979-07-21 06:37:29.220 ,0,0,0.,12.0,0.,12.0,0.,12.0,0.,12.0
1979-07-21 06:37:41.220 ,1,0,0.,12.0,0.,12.0,0.,12.0,0.,12.0
1979-07-21 06:37:53.220 ,1,0,0.,12.0,0.,12.0,0.,12.0,0.,12.0
1979-07-21 06:38:05.220 ,1,0,0.,12.0,0.,12.0,0.,12.0,0.,12.0
1979-07-21 06:38:17.220 ,1,0,0.,12.0,0.,12.0,0.,12.0,0.,12.0
1979-07-21 06:38:29.220 ,2,0,0.,12.0,0.,12.0,0.,12.0,0.,12.0
1979-07-21 06:38:41.220 ,2,0,0.,12.0,0.,12.0,0.,12.0,0.,12.0
1979-07-21 06:38:53.220 ,2,0,0.,12.0,0.,12.0,0.,12.0,0.,12.0
1979-07-21 06:39:05.220 ,2,0,0.,12.0,0.,12.0,0.,12.0,0.,12.0
1979-07-21 06:39:17.220 ,3,0,0.,12.0,0.,12.0,0.,12.0,0.,12.0
1979-07-21 06:39:29.220 ,3,0,1.,12.0,0.,12.0,0.,12.0,0.,12.0
1979-07-21 06:39:41.220 ,3,0,0.,12.0,0.,12.0,0.,12.0,0.,12.0
1979-07-21 06:39:53.220 ,3,0,0.,12.0,0.,12.0,0.,12.0,0.,12.0
1979-07-21 06:40:05.220 ,4,0,0.,12.0,0.,12.0,0.,12.0,0.,12.0
1979-07-21 06:40:17.220 ,4,0,0.,12.0,0.,12.0,0.,12.0,0.,12.0
1979-07-21 06:40:29.220 ,4,0,0.,12.0,0.,12.0,0.,12.0,0.,12.0
1979-07-21 06:40:41.220 ,4,0,0.,12.0,0.,12.0,0.,12.0,0.,12.0
1979-07-21 06:40:53.220 ,5,0,0.,12.0,0.,12.0,0.,12.0,0.,12.0
1979-07-21 06:41:05.220 ,5,0,0.,12.0,0.,12.0,0.,12.0,0.,12.0
1979-07-21 06:41:17.220 ,5,0,0.,12.0,0.,12.0,0.,12.0,0.,12.0
1979-07-21 06:41:29.220 ,5,0,0.,12.0,0.,12.0,0.,12.0,0.,12.0
1979-07-21 06:41:41.220 ,6,0,0.,12.0,0.,12.0,0.,12.0,0.,12.0
1979-07-21 06:41:53.220 ,6,0,0.,12.0,0.,12.0,0.,12.0,0.,12.0
1979-07-21 06:42:05.220 ,6,0,0.,12.0,0.,12.0,0.,12.0,0.,12.0
1979-07-21 06:42:17.220 ,6,0,0.,12.0,0.,12.0,0.,12.0,0.,12.0
1979-07-21 06:42:29.220 ,7,0,0.,12.0,0.,12.0,0.,12.0,0.,12.0
1979-07-21 06:42:41.220 ,7,0,0.,12.0,0.,12.0,0.,12.0,0.,12.0
1979-07-21 06:42:53.220 ,7,0,0.,12.0,0.,12.0,0.,12.0,0.,12.0
1979-07-21 06:43:05.220 ,7,0,0.,12.0,0.,12.0,0.,12.0,0.,12.0
1979-07-21 06:43:17.220 ,3,1,0.,12.0,0.,12.0,0.,12.0,0.,12.0
1979-07-21 06:43:29.220 ,3,1,0.,12.0,0.,12.0,0.,12.0,0.,12.0
1979-07-21 06:43:41.220 ,0,1,0.,12.0,0.,12.0,0.,12.0,0.,12.0
1979-07-21 06:43:53.220 ,0,1,0.,12.0,0.,12.0,0.,12.0,0.,12.0
1979-07-21 06:44:05.220 ,4,1,0.,12.0,0.,12.0,0.,12.0,0.,12.0
1979-07-21 06:44:17.220 ,4,1,0.,12.0,0.,12.0,0.,12.0,0.,12.0
1979-07-21 06:44:29.220 ,7,1,0.,12.0,0.,12.0,0.,12.0,0.,12.0
1979-07-21 06:44:41.220 ,7,1,0.,12.0,0.,12.0,0.,12.0,0.,12.0
1979-07-21 06:44:53.220 ,3,1,0.,12.0,0.,12.0,0.,12.0,0.,12.0
1979-07-21 06:45:05.220 ,3,1,0.,12.0,0.,12.0,0.,12.0,0.,12.0
1979-07-21 06:45:17.220 ,0,1,0.,12.0,0.,12.0,0.,12.0,0.,12.0
1979-07-21 06:45:29.220 ,0,1,0.,12.0,0.,12.0,0.,12.0,0.,12.0
1979-07-21 06:45:41.220 ,4,1,0.,12.0,0.,12.0,0.,12.0,0.,12.0
1979-07-21 06:45:53.220 ,4,1,0.,12.0,0.,12.0,0.,12.0,0.,12.0
1979-07-21 06:46:05.220 ,7,1,0.,12.0,0.,12.0,0.,12.0,0.,12.0
1979-07-21 06:46:17.220 ,7,1,0.,12.0,0.,12.0,0.,12.0,0.,12.0
1979-07-21 06:46:29.220 ,3,1,0.,12.0,0.,12.0,0.,12.0,0.,12.0
1979-07-21 06:46:41.220 ,3,1,0.,12.0,0.,12.0,0.,12.0,0.,12.0
1979-07-21 06:46:53.220 ,0,1,0.,12.0,0.,12.0,0.,12.0,0.,12.0
1979-07-21 06:47:05.220 ,0,1,0.,12.0,0.,12.0,0.,12.0,0.,12.0
1979-07-21 06:47:17.220 ,4,1,0.,12.0,0.,12.0,0.,12.0,0.,12.0
1979-07-21 06:47:29.220 ,4,1,0.,12.0,0.,12.0,0.,12.0,0.,12.0
1979-07-21 06:47:41.220 ,7,1,0.,12.0,0.,12.0,0.,12.0,0.,12.0
1979-07-21 06:47:53.220 ,7,1,0.,12.0,0.,12.0,0.,12.0,0.,12.0
1979-07-21 06:48:05.220 ,3,1,0.,12.0,0.,12.0,0.,12.0,0.,12.0
1979-07-21 06:48:17.220 ,3,1,0.,12.0,0.,12.0,0.,12.0,0.,12.0
1979-07-21 06:48:29.220 ,0,1,0.,12.0,0.,12.0,0.,12.0,0.,12.0
1979-07-21 06:48:41.220 ,0,1,0.,12.0,0.,12.0,0.,12.0,0.,12.0
1979-07-21 06:48:53.220 ,4,1,0.,12.0,0.,12.0,0.,12.0,0.,12.0
1979-07-21 06:49:05.220 ,4,1,0.,12.0,0.,12.0,0.,12.0,0.,12.0
1979-07-21 06:49:17.220 ,7,1,0.,12.0,0.,12.0,0.,12.0,0.,12.0
1979-07-21 06:49:29.220 ,7,1,0.,12.0,0.,12.0,0.,12.0,0.,12.0
1979-07-21 06:49:41.220 ,3,1,0.,12.0,0.,12.0,0.,12.0,0.,12.0
1979-07-21 06:49:53.220 ,3,1,0.,12.0,0.,12.0,0.,12.0,0.,12.0
1979-07-21 06:50:05.220 ,0,1,0.,12.0,0.,12.0,0.,12.0,0.,12.0
1979-07-21 06:50:17.220 ,0,1,0.,12.0,0.,12.0,0.,12.0,0.,12.0
1979-07-21 06:50:29.220 ,4,1,0.,12.0,0.,12.0,0.,12.0,0.,12.0
1979-07-21 06:50:41.220 ,4,1,0.,12.0,0.,12.0,0.,12.0,0.,12.0
1979-07-21 06:50:53.220 ,7,1,0.,12.0,0.,12.0,0.,12.0,0.,12.0
1979-07-21 06:51:05.220 ,7,1,0.,12.0,0.,12.0,0.,12.0,0.,12.0
1979-07-21 06:51:17.220 ,3,1,0.,12.0,0.,12.0,0.,12.0,0.,12.0
1979-07-21 06:51:29.220 ,3,1,0.,12.0,0.,12.0,0.,12.0,0.,12.0
1979-07-21 06:51:41.220 ,0,1,0.,12.0,0.,12.0,0.,12.0,0.,12.0
1979-07-21 06:51:53.220 ,0,1,0.,12.0,0.,12.0,0.,12.0,0.,12.0
1979-07-21 06:52:05.220 ,4,1,0.,12.0,0.,12.0,0.,12.0,0.,12.0
1979-07-21 06:52:17.220 ,4,1,0.,12.0,0.,12.0,0.,12.0,0.,12.0
1979-07-21 06:52:29.220 ,7,1,0.,12.0,0.,12.0,0.,12.0,0.,12.0
1979-07-21 06:52:41.220 ,7,1,0.,12.0,0.,12.0,0.,12.0,0.,12.0
1979-07-21 06:52:53.220 ,3,1,0.,12.0,0.,12.0,0.,12.0,0.,12.0
1979-07-21 06:53:05.220 ,3,1,0.,12.0,0.,12.0,0.,12.0,0.,12.0
1979-07-21 06:53:17.220 ,0,1,0.,12.0,0.,12.0,0.,12.0,0.,12.0
1979-07-21 06:53:29.220 ,0,1,0.,12.0,0.,12.0,0.,12.0,0.,12.0
1979-07-21 06:53:41.220 ,0,0,0.,12.0,0.,12.0,0.,12.0,0.,12.0
1979-07-21 06:53:53.220 ,0,0,0.,12.0,0.,12.0,0.,12.0,0.,12.0
1979-07-21 06:54:05.220 ,0,0,0.,12.0,0.,12.0,0.,12.0,0.,12.0
1979-07-21 06:54:17.220 ,0,0,0.,12.0,0.,12.0,0.,12.0,0.,12.0
1979-07-21 06:54:29.220 ,5,0,0.,12.0,0.,12.0,0.,12.0,0.,12.0
1979-07-21 06:54:41.220 ,5,0,0.,12.0,0.,12.0,0.,12.0,0.,12.0
1979-07-21 06:54:53.220 ,5,0,0.,12.0,0.,12.0,0.,12.0,0.,12.0
1979-07-21 06:55:05.220 ,5,0,0.,12.0,0.,12.0,0.,12.0,0.,12.0
1979-07-21 06:55:17.220 ,4,0,0.,12.0,0.,12.0,0.,12.0,0.,12.0
1979-07-21 06:55:29.220 ,4,0,0.,12.0,0.,12.0,0.,12.0,0.,12.0
1979-07-21 06:55:41.220 ,4,0,0.,12.0,0.,12.0,0.,12.0,0.,12.0
1979-07-21 06:55:53.220 ,4,0,0.,12.0,0.,12.0,0.,12.0,0.,12.0
1979-07-21 06:56:05.220 ,3,0,0.,12.0,0.,12.0,0.,12.0,0.,12.0
1979-07-21 06:56:17.220 ,3,0,0.,12.0,0.,12.0,0.,12.0,0.,12.0
1979-07-21 06:56:29.220 ,3,0,0.,12.0,0.,12.0,0.,12.0,0.,12.0
1979-07-21 06:56:41.220 ,3,0,0.,12.0,0.,12.0,0.,12.0,0.,12.0
1979-07-21 06:56:53.220 ,2,0,0.,12.0,0.,12.0,0.,12.0,0.,12.0
1979-07-21 06:57:05.220 ,2,0,0.,12.0,0.,12.0,0.,12.0,0.,12.0
1979-07-21 06:57:17.220 ,2,0,0.,12.0,0.,12.0,0.,12.0,0.,12.0
1979-07-21 06:57:29.220 ,2,0,0.,12.0,0.,12.0,0.,12.0,0.,12.0
1979-07-21 06:57:41.220 ,1,0,0.,12.0,0.,12.0,0.,12.0,0.,12.0
1979-07-21 06:57:53.220 ,1,0,0.,12.0,0.,12.0,0.,12.0,0.,12.0
1979-07-21 06:58:05.220 ,1,0,0.,12.0,0.,12.0,0.,12.0,0.,12.0
1979-07-21 06:58:17.220 ,1,0,0.,12.0,0.,12.0,0.,12.0,0.,12.0
1979-07-21 06:58:29.220 ,0,0,0.,12.0,0.,12.0,0.,12.0,0.,12.0
1979-07-21 06:58:41.220 ,0,0,0.,12.0,0.,12.0,0.,12.0,0.,12.0
1979-07-21 06:58:53.220 ,0,0,0.,12.0,0.,12.0,0.,12.0,0.,12.0
1979-07-21 06:59:05.220 ,0,0,0.,12.0,0.,12.0,0.,12.0,0.,12.0
1979-07-21 06:59:17.220 ,0,0,0.,12.0,0.,12.0,0.,12.0,0.,12.0
1979-07-21 06:59:29.220 ,0,0,0.,12.0,0.,12.0,0.,12.0,0.,12.0
1979-07-21 06:59:41.220 ,0,0,0.,12.0,0.,12.0,0.,12.0,0.,12.0
1979-07-21 06:59:53.220 ,0,0,0.,12.0,0.,12.0,0.,12.0,0.,12.0
1979-07-21 07:00:05.220 ,1,0,0.,12.0,0.,12.0,0.,12.0,0.,12.0
1979-07-21 07:00:17.220 ,1,0,0.,12.0,0.,12.0,0.,12.0,0.,12.0
1979-07-21 07:00:29.220 ,1,0,0.,12.0,0.,12.0,0.,12.0,0.,12.0
1979-07-21 07:00:41.220 ,1,0,0.,12.0,0.,12.0,0.,12.0,0.,12.0
1979-07-21 07:00:53.220 ,2,0,0.,12.0,0.,12.0,0.,12.0,0.,12.0
1979-07-21 07:01:05.220 ,2,0,0.,12.0,0.,12.0,0.,12.0,0.,12.0
1979-07-21 07:01:17.220 ,2,0,0.,12.0,0.,12.0,0.,12.0,0.,12.0
1979-07-21 07:01:29.220 ,2,0,0.,12.0,0.,12.0,0.,12.0,0.,12.0
1979-07-21 07:01:41.220 ,3,0,0.,12.0,0.,12.0,0.,12.0,0.,12.0
1979-07-21 07:01:53.220 ,3,0,0.,12.0,0.,12.0,0.,12.0,0.,12.0
1979-07-21 07:02:05.220 ,3,0,,0,,0,,0,,0
1979-07-21 07:02:17.220 ,3,0,0.,12.0,0.,12.0,0.,12.0,0.,12.0
1979-07-21 07:02:29.220 ,4,0,0.,12.0,0.,12.0,0.,12.0,0.,12.0
1979-07-21 07:02:41.220 ,4,0,0.,12.0,0.,12.0,0.,12.0,0.,12.0
1979-07-21 07:02:53.220 ,4,0,0.,12.0,0.,12.0,0.,12.0,0.,12.0
1979-07-21 07:03:05.220 ,4,0,0.,12.0,0.,12.0,0.,12.0,0.,12.0
1979-07-21 07:03:17.220 ,5,0,0.,12.0,0.,12.0,0.,12.0,0.,12.0
1979-07-21 07:03:29.220 ,5,0,0.,12.0,0.,12.0,0.,12.0,0.,12.0
1979-07-21 07:03:41.220 ,5,0,0.,12.0,0.,12.0,0.,12.0,0.,12.0
1979-07-21 07:03:53.220 ,5,0,0.,12.0,0.,12.0,0.,12.0,0.,12.0
1979-07-21 07:04:05.220 ,6,0,0.,12.0,0.,12.0,0.,12.0,0.,12.0
1979-07-21 07:04:17.220 ,6,0,0.,12.0,0.,12.0,0.,12.0,0.,12.0
1979-07-21 07:04:29.220 ,6,0,0.,12.0,0.,12.0,0.,12.0,0.,12.0
1979-07-21 07:04:41.220 ,6,0,0.,12.0,0.,12.0,0.,12.0,0.,12.0
1979-07-21 07:04:53.220 ,7,0,0.,12.0,0.,12.0,0.,12.0,0.,12.0
1979-07-21 07:05:05.220 ,7,0,0.,12.0,0.,12.0,0.,12.0,0.,12.0
1979-07-21 07:05:17.220 ,7,0,0.,12.0,0.,12.0,0.,12.0,0.,12.0
1979-07-21 07:05:29.220 ,7,0,0.,12.0,0.,12.0,0.,12.0,0.,12.0
1979-07-21 07:05:41.220 ,7,0,0.,12.0,0.,12.0,0.,12.0,0.,12.0
1979-07-21 07:05:53.220 ,7,0,0.,12.0,0.,12.0,0.,12.0,0.,12.0
1979-07-21 07:06:05.220 ,7,0,0.,12.0,0.,12.0,0.,12.0,0.,12.0
1979-07-21 07:06:17.220 ,7,0,0.,12.0,0.,12.0,0.,12.0,0.,12.0
1979-07-21 07:06:29.220 ,6,0,0.,12.0,0.,12.0,0.,12.0,0.,12.0
1979-07-21 07:06:41.220 ,6,0,0.,12.0,0.,12.0,0.,12.0,0.,12.0
1979-07-21 07:06:53.220 ,6,0,0.,12.0,0.,12.0,0.,12.0,0.,12.0
1979-07-21 07:07:05.220 ,6,0,0.,12.0,0.,12.0,0.,12.0,0.,12.0
1979-07-21 07:07:17.220 ,5,0,0.,12.0,0.,12.0,0.,12.0,0.,12.0
1979-07-21 07:07:29.220 ,5,0,0.,12.0,0.,12.0,0.,12.0,0.,12.0
1979-07-21 07:07:41.220 ,5,0,0.,12.0,0.,12.0,0.,12.0,0.,12.0
1979-07-21 07:07:53.220 ,5,0,0.,12.0,0.,12.0,0.,12.0,0.,12.0
1979-07-21 07:08:05.220 ,4,0,0.,12.0,0.,12.0,0.,12.0,0.,12.0
1979-07-21 07:08:17.220 ,4,0,0.,12.0,0.,12.0,0.,12.0,0.,12.0
1979-07-21 07:08:29.220 ,4,0,0.,12.0,0.,12.0,0.,12.0,0.,12.0
1979-07-21 07:08:41.220 ,4,0,0.,12.0,0.,12.0,0.,12.0,0.,12.0
1979-07-21 07:08:53.220 ,3,0,0.,12.0,0.,12.0,0.,12.0,0.,12.0
1979-07-21 07:09:05.220 ,3,0,0.,12.0,0.,12.0,0.,12.0,0.,12.0
1979-07-21 07:09:17.220 ,3,0,0.,12.0,0.,12.0,0.,12.0,0.,12.0
1979-07-21 07:09:29.220 ,3,0,0.,12.0,0.,12.0,0.,12.0,0.,12.0
1979-07-21 07:09:41.220 ,2,0,0.,12.0,0.,12.0,0.,12.0,0.,12.0
1979-07-21 07:09:53.220 ,2,0,0.,12.0,0.,12.0,0.,12.0,0.,12.0
1979-07-21 07:10:05.220 ,2,0,0.,12.0,0.,12.0,0.,12.0,0.,12.0
1979-07-21 07:10:17.220 ,2,0,0.,12.0,0.,12.0,0.,12.0,0.,12.0
1979-07-21 07:10:29.220 ,1,0,0.,12.0,0.,12.0,0.,12.0,0.,12.0
1979-07-21 07:10:41.220 ,1,0,0.,12.0,0.,12.0,0.,12.0,1.,12.0
1979-07-21 07:10:53.220 ,1,0,0.,12.0,0.,12.0,0.,12.0,0.,12.0
1979-07-21 07:11:05.220 ,1,0,0.,12.0,0.,12.0,0.,12.0,0.,12.0
1979-07-21 07:11:17.220 ,0,0,0.,12.0,0.,12.0,0.,12.0,0.,12.0
1979-07-21 07:11:29.220 ,0,0,0.,12.0,0.,12.0,0.,12.0,0.,12.0
1979-07-21 07:11:41.220 ,0,0,0.,12.0,0.,12.0,0.,12.0,0.,12.0
1979-07-21 07:11:53.220 ,0,0,0.,12.0,0.,12.0,0.,12.0,0.,12.0
1979-07-21 07:12:05.220 ,0,0,0.,12.0,0.,12.0,0.,12.0,0.,12.0
1979-07-21 07:12:17.220 ,0,0,0.,12.0,0.,12.0,0.,12.0,0.,12.0
1979-07-21 07:12:29.220 ,0,0,0.,12.0,0.,12.0,0.,12.0,0.,12.0
1979-07-21 07:12:41.220 ,0,0,0.,12.0,0.,12.0,0.,12.0,0.,12.0
1979-07-21 07:12:53.220 ,1,0,0.,12.0,0.,12.0,0.,12.0,0.,12.0
1979-07-21 07:13:05.220 ,1,0,0.,12.0,0.,12.0,0.,12.0,0.,12.0
1979-07-21 07:13:17.220 ,1,0,0.,12.0,0.,12.0,0.,12.0,0.,12.0
1979-07-21 07:13:29.220 ,1,0,0.,12.0,0.,12.0,0.,12.0,0.,12.0
1979-07-21 07:13:41.220 ,2,0,0.,12.0,0.,12.0,0.,12.0,0.,12.0
1979-07-21 07:13:53.220 ,2,0,0.,12.0,0.,12.0,0.,12.0,0.,12.0
1979-07-21 07:14:05.220 ,2,0,0.,12.0,0.,12.0,0.,12.0,0.,12.0
1979-07-21 07:14:17.220 ,2,0,0.,12.0,0.,12.0,0.,12.0,0.,12.0
1979-07-21 07:14:29.220 ,3,0,0.,12.0,0.,12.0,0.,12.0,0.,12.0
1979-07-21 07:14:41.220 ,3,0,0.,12.0,0.,12.0,0.,12.0,0.,12.0
1979-07-21 07:14:53.220 ,3,0,0.,12.0,0.,12.0,0.,12.0,0.,12.0
1979-07-21 07:15:05.220 ,3,0,0.,12.0,0.,12.0,0.,12.0,0.,12.0
1979-07-21 07:15:17.220 ,4,0,0.,12.0,0.,12.0,0.,12.0,0.,12.0
1979-07-21 07:15:29.220 ,4,0,0.,12.0,0.,12.0,0.,12.0,0.,12.0
1979-07-21 07:15:41.220 ,4,0,0.,12.0,0.,12.0,0.,12.0,0.,12.0
1979-07-21 07:15:53.220 ,4,0,1.,12.0,0.,12.0,0.,12.0,0.,12.0
1979-07-21 07:16:05.220 ,5,0,0.,12.0,0.,12.0,0.,12.0,0.,12.0
1979-07-21 07:16:17.220 ,5,0,0.,12.0,0.,12.0,0.,12.0,0.,12.0
1979-07-21 07:16:29.220 ,5,0,0.,12.0,0.,12.0,0.,12.0,0.,12.0
1979-07-21 07:16:41.220 ,5,0,0.,12.0,0.,12.0,0.,12.0,0.,12.0
1979-07-21 07:16:53.220 ,6,0,0.,12.0,0.,12.0,0.,12.0,0.,12.0
1979-07-21 07:17:05.220 ,6,0,0.,12.0,0.,12.0,0.,12.0,0.,12.0
1979-07-21 07:17:17.220 ,6,0,0.,12.0,0.,12.0,0.,12.0,0.,12.0
1979-07-21 07:17:29.220 ,6,0,0.,12.0,0.,12.0,0.,12.0,0.,12.0